Parkersburg, WV

5:43 PM EDT on August 20, 2017 (GMT -0400)
Wood County Wilson

Weather History for KPKB - January, 2014

Change the Weather History Date:

Friday, January 17, 2014

  Actual Average Record
Temperature  
Mean Temperature 31 °F 31 °F  
Max Temperature 42 °F 40 °F 68 °F (1932)
Min Temperature 19 °F 23 °F -15 °F (1977)
Degree Days  
Heating Degree Days 34 34  
Month to date heating degree days 572 571  
Since 1 July heating degree days 2522 2481  
Cooling Degree Days 0 0  
Month to date cooling degree days 0 0  
Year to date cooling degree days 0 0  
Moisture  
Dew Point 26 °F    
Average Humidity 79    
Maximum Humidity 92    
Minimum Humidity 65    
Precipitation  
Precipitation 0.16 in 0.09 in 0.87 in (1952)
Month to date precipitation 1.80 1.60  
Year to date precipitation 1.80 1.60  
Sea Level Pressure  
Sea Level Pressure 29.89 in    
Wind  
Wind Speed 8 mph (SW)    
Max Wind Speed 21 mph    
Max Gust Speed 31 mph    
Visibility 7 miles    
Events Rain , Snow    
T = Trace of Precipitation, MM = Missing Value Source: NWS Daily Summary

Daily Weather History Graph

Daily Weather History Graph

Search for Another Location

Airport or City:

Trip Planner

Search our weather history database for the weather conditions in past years. The results will help you decide how hot, cold, wet, or windy it might be!

Date:

Astronomy

Jan. 17, 2014 Rise Set
Actual Time 7:43 AM EST 5:28 PM EST
Civil Twilight 7:13 AM EST 5:58 PM EST
Nautical Twilight 6:40 AM EST 6:31 PM EST
Astronomical Twilight 6:08 AM EST 7:03 PM EST
Moon 7:13 PM EST (1/17) 8:11 AM EST (1/17)
Length of Visible Light 10h 44m
Length of Day
9h 45m
Full, 98% of the Moon is Illuminated
Jan 17
Full
Jan 24
Last Quarter
Jan 30
New
Feb 6
First Quarter
Feb 14
Full

Hourly Weather History & Observations

Time (EST) Temp. Windchill Dew Point Humidity Pressure Visibility Wind Dir Wind Speed Gust Speed Precip Events Conditions
12:14 AM 32.0 °F 22.5 °F 25.0 °F 75% 29.87 in 1.8 mi SSW 12.7 mph 20.7 mph 0.00 in Snow Light Snow
12:53 AM 30.0 °F 22.4 °F 28.0 °F 92% 29.89 in 4.0 mi South 8.1 mph - 0.01 in Snow Light Snow
1:02 AM 30.9 °F 22.8 °F 28.0 °F 89% 29.87 in 9.0 mi South 9.2 mph - 0.00 in   Overcast
1:53 AM 30.9 °F 24.3 °F 28.0 °F 89% 29.89 in 10.0 mi South 6.9 mph - 0.00 in   Overcast
2:53 AM 30.9 °F 27.5 °F 28.0 °F 89% 29.89 in 10.0 mi South 3.5 mph - N/A   Overcast
3:53 AM 32.0 °F 28.7 °F 28.0 °F 85% 29.88 in 10.0 mi SSE 3.5 mph - N/A   Overcast
4:53 AM 32.0 °F - 28.0 °F 85% 29.88 in 10.0 mi Calm Calm - N/A   Overcast
5:53 AM 32.0 °F - 28.0 °F 85% 29.87 in 10.0 mi Calm Calm - N/A   Overcast
6:41 AM 32.0 °F 26.4 °F 28.0 °F 85% 29.85 in 10.0 mi South 5.8 mph - 0.00 in   Overcast
6:53 AM 32.0 °F 27.5 °F 28.0 °F 85% 29.88 in 5.0 mi South 4.6 mph - 0.00 in Snow Light Snow
8:53 AM 33.1 °F 26.9 °F 30.0 °F 89% 29.90 in 7.0 mi South 6.9 mph - 0.00 in   Overcast
9:04 AM 33.1 °F 26.9 °F 30.0 °F 89% 29.88 in 1.5 mi South 6.9 mph - 0.00 in Snow Light Snow
9:07 AM 33.1 °F 26.9 °F 30.0 °F 89% 29.88 in 0.8 mi South 6.9 mph - 0.00 in Snow Light Snow
9:15 AM 33.1 °F 26.9 °F 30.0 °F 89% 29.88 in 4.0 mi SSE 6.9 mph - 0.00 in Snow Light Snow
9:40 AM 34.0 °F 28.0 °F 30.9 °F 89% 29.88 in 10.0 mi SSE 6.9 mph - 0.00 in   Mostly Cloudy
9:53 AM 35.1 °F 28.6 °F 30.9 °F 85% 29.90 in 10.0 mi SSE 8.1 mph - 0.00 in   Scattered Clouds
10:53 AM 37.9 °F 32.1 °F 30.9 °F 76% 29.88 in 10.0 mi South 8.1 mph 16.1 mph N/A   Scattered Clouds
11:26 AM 39.0 °F 34.8 °F 30.0 °F 70% 29.85 in 10.0 mi SSE 5.8 mph - N/A   Mostly Cloudy
11:44 AM 41.0 °F 34.7 °F 30.9 °F 67% 29.83 in 10.0 mi SSE 10.4 mph 16.1 mph N/A   Scattered Clouds
11:53 AM 41.0 °F 34.7 °F 30.0 °F 65% 29.84 in 10.0 mi SSE 10.4 mph - N/A   Scattered Clouds
12:17 PM 41.0 °F 34.7 °F 28.9 °F 62% 29.82 in 10.0 mi South 10.4 mph - N/A   Mostly Cloudy
12:35 PM 39.0 °F - 28.9 °F 67% 29.83 in 2.0 mi North - - 0.00 in Rain Light Rain
12:37 PM 37.0 °F 27.4 °F 28.9 °F 73% 29.82 in 0.5 mi SW 17.3 mph 27.6 mph 0.01 in Snow Snow
12:47 PM 35.6 °F 27.1 °F 32.0 °F 87% 29.81 in 2.0 mi South 12.7 mph 18.4 mph 0.02 in Snow Light Snow
12:53 PM 37.0 °F 30.4 °F 33.1 °F 86% 29.83 in 8.0 mi SSW 9.2 mph - 0.02 in Rain Light Rain
1:04 PM 37.9 °F 32.7 °F 34.0 °F 86% 29.80 in 10.0 mi SW 6.9 mph - 0.00 in   Mostly Cloudy
1:53 PM 39.0 °F 35.7 °F 33.1 °F 79% 29.80 in 10.0 mi West 4.6 mph - 0.00 in   Overcast
2:05 PM 37.9 °F 34.4 °F 33.1 °F 83% 29.78 in 6.0 mi Variable 4.6 mph - 0.01 in Rain Light Rain
2:19 PM 35.1 °F 26.9 °F 32.0 °F 89% 29.80 in 1.5 mi WSW 11.5 mph - 0.03 in Snow Light Snow
2:25 PM 33.1 °F 28.7 °F 30.9 °F 92% 29.80 in 0.8 mi SW 4.6 mph - 0.06 in Snow Light Snow
2:48 PM 33.8 °F 28.6 °F 32.0 °F 93% 29.81 in 1.5 mi West 5.8 mph - 0.10 in Rain Light Rain
2:53 PM 33.1 °F 28.7 °F 32.0 °F 96% 29.84 in 1.5 mi WSW 4.6 mph - 0.12 in Snow Light Snow
3:00 PM 33.1 °F 30.0 °F 32.0 °F 96% 29.81 in 0.8 mi WSW 3.5 mph - 0.00 in Snow Light Snow
3:04 PM 33.1 °F 27.7 °F 32.0 °F 96% 29.81 in 2.0 mi SW 5.8 mph - 0.00 in Snow Light Snow
3:11 PM 34.0 °F 28.8 °F 30.9 °F 89% 29.81 in 9.0 mi WSW 5.8 mph - 0.00 in   Overcast
3:20 PM 34.0 °F 28.8 °F 30.9 °F 89% 29.81 in 10.0 mi WSW 5.8 mph - 0.00 in   Overcast
3:29 PM 34.0 °F 28.0 °F 30.9 °F 89% 29.82 in 2.5 mi WSW 6.9 mph - 0.00 in Snow Light Snow
3:38 PM 33.1 °F 26.1 °F 30.9 °F 92% 29.82 in 1.8 mi SW 8.1 mph - 0.01 in Snow Light Snow
3:42 PM 34.0 °F 28.0 °F 32.0 °F 92% 29.82 in 3.0 mi SW 6.9 mph - 0.01 in Snow Light Snow
3:53 PM 34.0 °F 28.0 °F 32.0 °F 92% 29.85 in 9.0 mi WSW 6.9 mph - 0.01 in   Overcast
4:05 PM 34.0 °F 26.0 °F 32.0 °F 92% 29.83 in 10.0 mi West 10.4 mph 19.6 mph 0.00 in   Overcast
4:10 PM 33.1 °F 21.2 °F 30.0 °F 89% 29.84 in 1.8 mi WNW 20.7 mph 31.1 mph 0.00 in Snow Light Snow
4:22 PM 33.1 °F 23.9 °F 28.0 °F 82% 29.85 in 3.0 mi West 12.7 mph 27.6 mph 0.00 in Snow Light Snow
4:30 PM 33.1 °F 24.4 °F 28.9 °F 85% 29.85 in 10.0 mi West 11.5 mph 20.7 mph 0.00 in Snow Light Snow
4:53 PM 32.0 °F 22.5 °F 28.0 °F 85% 29.89 in 8.0 mi WNW 12.7 mph 21.9 mph 0.00 in Snow Light Snow
5:41 PM 30.9 °F 22.8 °F 26.1 °F 82% 29.90 in 10.0 mi West 9.2 mph - 0.00 in   Overcast
5:53 PM 30.0 °F 20.5 °F 23.0 °F 75% 29.95 in 10.0 mi WNW 11.5 mph 26.5 mph 0.00 in   Overcast
6:53 PM 28.0 °F 17.0 °F 23.0 °F 81% 29.99 in 5.0 mi West 13.8 mph 19.6 mph 0.00 in Snow Light Snow
7:05 PM 28.0 °F 18.1 °F 21.9 °F 78% 29.97 in 7.0 mi West 11.5 mph 24.2 mph 0.00 in Snow Light Snow
7:13 PM 28.0 °F 18.6 °F 21.0 °F 75% 29.97 in 9.0 mi WSW 10.4 mph - 0.00 in   Overcast
7:53 PM 26.1 °F 15.0 °F 19.0 °F 75% 30.02 in 10.0 mi West 12.7 mph 19.6 mph 0.00 in   Overcast
8:53 PM 25.0 °F 13.6 °F 17.1 °F 72% 30.04 in 8.0 mi WNW 12.7 mph - 0.00 in Snow Light Snow
9:00 PM 23.0 °F 10.1 °F 18.0 °F 81% 30.01 in 2.5 mi NW 15.0 mph 20.7 mph 0.00 in Snow Light Snow
9:04 PM 23.0 °F 10.6 °F 18.0 °F 81% 30.01 in 1.2 mi WNW 13.8 mph 20.7 mph 0.00 in Snow Light Snow
9:15 PM 21.9 °F 11.7 °F 19.0 °F 89% 30.02 in 3.0 mi West 9.2 mph - 0.00 in Snow Light Snow
9:25 PM 21.9 °F 11.0 °F 15.1 °F 75% 30.02 in 9.0 mi West 10.4 mph 23.0 mph 0.00 in   Overcast
9:33 PM 21.9 °F 9.2 °F 15.1 °F 75% 30.02 in 10.0 mi West 13.8 mph - 0.00 in   Overcast
9:53 PM 21.9 °F 8.7 °F 10.9 °F 63% 30.06 in 8.0 mi West 15.0 mph 25.3 mph 0.00 in Snow Light Snow
10:53 PM 19.9 °F 6.2 °F 10.0 °F 65% 30.08 in 10.0 mi West 15.0 mph 18.4 mph 0.00 in   Overcast
11:34 PM 19.0 °F 6.1 °F 10.9 °F 71% 30.06 in 7.0 mi WNW 12.7 mph - 0.00 in Snow Light Snow
11:49 PM 19.4 °F 6.0 °F 6.8 °F 58% 30.06 in 10.0 mi West 13.8 mph - 0.00 in   Overcast
11:53 PM 19.0 °F 6.8 °F 6.1 °F 57% 30.08 in 10.0 mi West 11.5 mph - 0.00 in   Overcast